Content
SEND FEEDBACK

Daily
Averages
Monthly
Summary
United States of America

DUMAS, ARKANSAS


Home > North America > United States > Arkansas
Elevation: 160 feet     Latitude: 33 53N     Longitude: 091 29W

WEATHER
 
SELECT A DAY
Number of Records: 166,653;   Date Range: 10/22/98 - 7/29/14
 
SHARE

PRINT THIS DATA

[ ← Previous Day ]
WEATHER ALMANAC - JANUARY 31, 2013
[ Next Day → ]
[ °C ]   °F
Weather ElementAverageHighLow
Temperature46.9 °F61 °F (3:53 pm)33.1 °F (1:53 am)
Dewpoint26.2 °F28.9 °F (9:53 am)23 °F (1:53 pm)
Humidity49.2 %78 % (1:53 am)24 % (2:53 pm)
Barometer30.16 in30.23 in (9:53 am)30.11 in (1:53 am)
Wind Speed7.8 mph15 mph (3:53 pm)
Wind Gust21.9 mph (1:53 pm)
Weather ElementAverage
Visibility9.9 mi
Wind DirectionWSW (236.8 °)

Weather ElementTotal
Precipitation---
Heating Degree Days18 (Base 65)
Averaged from 19 records on January 31, 2013
WEATHER CONDITIONS BREAKOUT
WIND DIRECTION BREAKOUT
WEATHER BY HOUR - JANUARY 31, 2013
[ °C ]   °F
Local TimeTemperatureDewpointHumidityBarometerVisibilityWind DirectionWind SpeedGust SpeedPrecipitationEventsConditions
1:53 AM33.1 °F27.0 °F78 %30.11 in10.0 miWSW (250°)3.5 mphClear
2:53 AM34.0 °F27.0 °F75 %30.13 in10.0 miSW (230°)4.6 mphClear
3:53 AM34.0 °F27.0 °F75 %30.14 in9.0 miSW (230°)4.6 mph0.00 inSnowLight Snow
4:53 AM34.0 °F27.0 °F75 %30.13 in10.0 miSW (220°)3.5 mph0.00 inClear
5:53 AM34.0 °F27.0 °F75 %30.15 in10.0 miWSW (240°)4.6 mph0.00 inSnowLight Snow
6:53 AM34.0 °F27.0 °F75 %30.18 in9.0 miSW (230°)5.8 mph0.00 inSnowLight Snow
7:53 AM35.1 °F28.0 °F76 %30.19 in10.0 miWest (260°)3.5 mph0.00 inClear
9:53 AM45.0 °F28.9 °F53 %30.23 in10.0 miWSW (240°)10.4 mphClear
10:53 AM50.0 °F28.0 °F43 %30.21 in10.0 miWest (260°)12.7 mph19.6 mphClear
11:53 AM55.0 °F26.1 °F33 %30.18 in10.0 miWSW (240°)11.5 mph16.1 mphClear
12:53 PM57.0 °F25.0 °F29 %30.16 in10.0 miSW (230°)11.5 mphClear
1:53 PM59.0 °F23.0 °F25 %30.14 in10.0 miWSW (250°)12.7 mph21.9 mphClear
2:53 PM60.1 °F23.0 °F24 %30.12 in10.0 miWSW (240°)11.5 mph20.7 mphClear
3:53 PM61.0 °F24.1 °F24 %30.12 in10.0 miSSW (210°)15.0 mph19.6 mphClear
4:53 PM60.1 °F25.0 °F26 %30.12 in10.0 miSSW (210°)8.1 mphClear
6:53 PM53.1 °F26.1 °F35 %30.16 in10.0 miSW (230°)6.9 mphClear
7:53 PM52.0 °F26.1 °F37 %30.20 in10.0 miWSW (240°)4.6 mphClear
8:53 PM51.1 °F26.1 °F38 %30.20 in10.0 miWSW (240°)6.9 mphClear
9:53 PM50.0 °F26.1 °F39 %30.22 in10.0 miWSW (250°)5.8 mphClear
Hourly data recorded from KLLQ, located miles away from Dumas, Arkansas







STORIES FROM OUR PARTNERS